| time (UTC) | temp F | wind direction | speed knots | gust knots | rain 1hr in | rain 24hr in | rain mn in | humidity % | barometer mb |
| 20260508191538 | 73 | 203 | 2.6 | 7.0 | 0.00 | 0.00 | 0.00 | 23 | 1016.7 |
| 20260508190519 | 73 | 293 | 0.9 | 2.6 | 0.00 | 0.00 | 0.00 | 23 | 1016.7 |
| 20260508185519 | 74 | 248 | 1.7 | 6.1 | 0.00 | 0.00 | 0.00 | 23 | 1016.8 |
| 20260508184519 | 74 | 270 | 1.7 | 7.0 | 0.00 | 0.00 | 0.00 | 24 | 1017.3 |
| 20260508183520 | 74 | 293 | 1.7 | 6.1 | 0.00 | 0.00 | 0.00 | 23 | 1017.3 |
| 20260508182520 | 73 | 225 | 1.7 | 4.3 | 0.00 | 0.00 | 0.00 | 25 | 1017.0 |
| 20260508181519 | 73 | 293 | 1.7 | 8.7 | 0.00 | 0.00 | 0.00 | 24 | 1017.0 |
| 20260508180559 | 73 | 270 | 1.7 | 7.8 | 0.00 | 0.00 | 0.00 | 24 | 1017.1 |
| 20260508175519 | 73 | 270 | 1.7 | 3.5 | 0.00 | 0.00 | 0.00 | 26 | 1017.2 |
| 20260508174519 | 72 | 270 | 0.9 | 5.2 | 0.00 | 0.00 | 0.00 | 30 | 1017.4 |
| 20260508173540 | 72 | 270 | 1.7 | 5.2 | 0.00 | 0.00 | 0.00 | 26 | 1017.3 |
| 20260508172540 | 71 | 270 | 1.7 | 2.6 | 0.00 | 0.00 | 0.00 | 28 | 1017.3 |
| 20260508171519 | 71 | 248 | 1.7 | 5.2 | 0.00 | 0.00 | 0.00 | 27 | 1017.2 |
| 20260508170519 | 70 | 248 | 1.7 | 2.6 | 0.00 | 0.00 | 0.00 | 29 | 1017.2 |
| 20260508165519 | 70 | 248 | 0.9 | 3.5 | 0.00 | 0.00 | 0.00 | 30 | 1017.2 |
| 20260508164519 | 69 | 248 | 1.7 | 3.5 | 0.00 | 0.00 | 0.00 | 32 | 1016.9 |
| 20260508163519 | 68 | 248 | 1.7 | 3.5 | 0.00 | 0.00 | 0.00 | 33 | 1016.9 |
| 20260508162539 | 68 | 248 | 1.7 | 3.5 | 0.00 | 0.00 | 0.00 | 31 | 1016.8 |
| 20260508161519 | 68 | 270 | 1.7 | 6.1 | 0.00 | 0.00 | 0.00 | 32 | 1016.6 |
| 20260508160519 | 67 | 0.0 | 1.7 | 0.00 | 0.00 | 0.00 | 33 | 1016.2 | |
| 20260508155519 | 65 | 45 | 0.9 | 2.6 | 0.00 | 0.00 | 0.00 | 36 | 1016.2 |
| 20260508154519 | 64 | 0.0 | 0.0 | 0.00 | 0.00 | 0.00 | 38 | 1016.3 | |
| 20260508153520 | 63 | 0.0 | 0.0 | 0.00 | 0.00 | 0.00 | 40 | 1016.2 | |
| 20260508152539 | 62 | 0.0 | 0.9 | 0.00 | 0.00 | 0.00 | 42 | 1016.1 | |
| 20260508151519 | 61 | 0.0 | 0.9 | 0.00 | 0.00 | 0.00 | 42 | 1016.1 | |
| 20260508150519 | 60 | 45 | 0.9 | 1.7 | 0.00 | 0.00 | 0.00 | 43 | 1016.0 |
| 20260508145519 | 58 | 45 | 0.9 | 1.7 | 0.00 | 0.00 | 0.00 | 46 | 1016.0 |
| 20260508144539 | 57 | 0.0 | 1.7 | 0.00 | 0.00 | 0.00 | 48 | 1016.3 | |
| 20260508143519 | 56 | 0.0 | 0.0 | 0.00 | 0.00 | 0.00 | 51 | 1016.4 | |
| 20260508142519 | 55 | 0.0 | 0.0 | 0.00 | 0.00 | 0.00 | 53 | 1016.7 | |
| 20260508141519 | 54 | 0.0 | 0.0 | 0.00 | 0.00 | 0.00 | 57 | 1016.7 | |
| 20260508140519 | 53 | 0.0 | 0.0 | 0.00 | 0.00 | 0.00 | 59 | 1016.7 | |
| 20260508135519 | 52 | 0.0 | 0.0 | 0.00 | 0.00 | 0.00 | 59 | 1016.2 | |
| 20260508134518 | 51 | 0.0 | 0.0 | 0.00 | 0.00 | 0.00 | 59 | 1016.1 | |
| 20260508133519 | 50 | 45 | 1.7 | 2.6 | 0.00 | 0.00 | 0.00 | 57 | 1015.9 |
| 20260508132519 | 50 | 0.0 | 2.6 | 0.00 | 0.00 | 0.00 | 56 | 1016.1 | |
| 20260508131518 | 50 | 45 | 0.9 | 2.6 | 0.00 | 0.00 | 0.00 | 55 | 1016.1 |
| 20260508130540 | 50 | 45 | 1.7 | 2.6 | 0.00 | 0.00 | 0.00 | 55 | 1015.9 |
| 20260508125519 | 50 | 45 | 1.7 | 2.6 | 0.00 | 0.00 | 0.00 | 55 | 1015.9 |
| 20260508124518 | 50 | 45 | 2.6 | 2.6 | 0.00 | 0.00 | 0.00 | 55 | 1015.4 |
| 20260508123518 | 50 | 45 | 1.7 | 2.6 | 0.00 | 0.00 | 0.00 | 55 | 1015.4 |
| 20260508122519 | 50 | 0.0 | 0.9 | 0.00 | 0.00 | 0.00 | 55 | 1015.1 | |
| 20260508121518 | 51 | 45 | 0.9 | 1.7 | 0.00 | 0.00 | 0.00 | 54 | 1014.8 |
| 20260508120519 | 51 | 0.0 | 0.0 | 0.00 | 0.00 | 0.00 | 54 | 1014.8 | |
| 20260508115518 | 51 | 0.0 | 0.0 | 0.00 | 0.00 | 0.00 | 54 | 1014.9 | |
| 20260508114519 | 52 | 45 | 1.7 | 3.5 | 0.00 | 0.00 | 0.00 | 53 | 1015.1 |
| 20260508113518 | 51 | 45 | 2.6 | 3.5 | 0.00 | 0.00 | 0.00 | 54 | 1015.1 |
| 20260508112519 | 51 | 0.0 | 2.6 | 0.00 | 0.00 | 0.00 | 55 | 1015.2 | |
| 20260508111518 | 51 | 0.0 | 0.0 | 0.00 | 0.00 | 0.00 | 56 | 1015.6 | |
| 20260508110518 | 51 | 0.0 | 0.0 | 0.00 | 0.00 | 0.00 | 55 | 1015.3 | |
| 20260508105519 | 51 | 0.0 | 0.9 | 0.00 | 0.00 | 0.00 | 55 | 1015.3 | |
| 20260508104600 | 51 | 45 | 0.9 | 3.5 | 0.00 | 0.00 | 0.00 | 55 | 1015.2 |
| 20260508103538 | 52 | 0.0 | 1.7 | 0.00 | 0.00 | 0.00 | 55 | 1015.2 | |
| 20260508102519 | 52 | 45 | 1.7 | 2.6 | 0.00 | 0.00 | 0.00 | 54 | 1015.2 |
| 20260508101519 | 52 | 0.0 | 0.9 | 0.00 | 0.00 | 0.00 | 53 | 1015.1 | |
| 20260508100518 | 52 | 45 | 1.7 | 3.5 | 0.00 | 0.00 | 0.00 | 54 | 1015.3 |
| 20260508095539 | 52 | 0.0 | 0.0 | 0.00 | 0.00 | 0.00 | 53 | 1015.3 | |
| 20260508094518 | 52 | 45 | 0.9 | 2.6 | 0.00 | 0.00 | 0.00 | 53 | 1014.9 |
| 20260508093518 | 52 | 0.0 | 0.0 | 0.00 | 0.00 | 0.00 | 54 | 1014.8 | |
| 20260508092518 | 52 | 0.0 | 0.0 | 0.00 | 0.00 | 0.00 | 53 | 1015.1 | |
| 20260508091538 | 52 | 0.0 | 0.0 | 0.00 | 0.00 | 0.00 | 53 | 1015.2 | |
| 20260508090518 | 52 | 0.0 | 0.0 | 0.00 | 0.00 | 0.00 | 52 | 1015.1 | |
| 20260508085539 | 53 | 0.0 | 1.7 | 0.00 | 0.00 | 0.00 | 52 | 1015.1 | |
| 20260508084518 | 53 | 45 | 1.7 | 2.6 | 0.00 | 0.00 | 0.00 | 51 | 1015.2 |
| 20260508083518 | 53 | 45 | 1.7 | 2.6 | 0.00 | 0.00 | 0.00 | 50 | 1015.2 |
| 20260508082519 | 54 | 45 | 1.7 | 2.6 | 0.00 | 0.00 | 0.00 | 49 | 1014.9 |
| 20260508081517 | 54 | 45 | 0.9 | 2.6 | 0.00 | 0.00 | 0.00 | 48 | 1014.9 |
| 20260508080538 | 54 | 45 | 2.6 | 3.5 | 0.00 | 0.00 | 0.00 | 47 | 1014.9 |
| 20260508075518 | 55 | 45 | 1.7 | 2.6 | 0.00 | 0.00 | 0.00 | 46 | 1015.0 |
| 20260508074518 | 55 | 45 | 1.7 | 2.6 | 0.00 | 0.00 | 0.00 | 46 | 1014.9 |
| 20260508073518 | 55 | 0.0 | 1.7 | 0.00 | 0.00 | 0.00 | 46 | 1015.0 | |
| 20260508072518 | 55 | 45 | 2.6 | 3.5 | 0.00 | 0.00 | 0.00 | 45 | 1015.1 |
| 20260508071518 | 55 | 45 | 1.7 | 2.6 | 0.00 | 0.00 | 0.00 | 46 | 1014.8 |
| 20260508070518 | 55 | 45 | 1.7 | 2.6 | 0.00 | 0.00 | 0.00 | 45 | 1014.9 |
| 20260508065517 | 55 | 45 | 1.7 | 2.6 | 0.00 | 0.00 | 0.00 | 45 | 1015.0 |
| 20260508064518 | 56 | 0.0 | 0.0 | 0.00 | 0.00 | 0.00 | 44 | 1014.9 | |
| 20260508063518 | 56 | 45 | 1.7 | 2.6 | 0.00 | 0.00 | 0.00 | 44 | 1014.7 |
| 20260508062519 | 56 | 45 | 2.6 | 3.5 | 0.00 | 0.00 | 0.00 | 44 | 1014.7 |
| 20260508061518 | 56 | 45 | 2.6 | 2.6 | 0.00 | 0.00 | 0.00 | 44 | 1014.7 |
| 20260508060517 | 56 | 45 | 2.6 | 3.5 | 0.00 | 0.00 | 0.00 | 45 | 1014.6 |
| 20260508055519 | 56 | 45 | 2.6 | 3.5 | 0.00 | 0.00 | 0.00 | 46 | 1014.5 |
| 20260508054540 | 56 | 45 | 2.6 | 3.5 | 0.00 | 0.00 | 0.00 | 46 | 1014.5 |
| 20260508053519 | 56 | 45 | 2.6 | 3.5 | 0.00 | 0.00 | 0.00 | 45 | 1014.4 |
| 20260508052519 | 57 | 45 | 0.9 | 2.6 | 0.00 | 0.00 | 0.00 | 45 | 1014.4 |
| 20260508051518 | 57 | 0.0 | 0.0 | 0.00 | 0.00 | 0.00 | 44 | 1014.1 | |
| 20260508050518 | 58 | 0.0 | 0.9 | 0.00 | 0.00 | 0.00 | 43 | 1014.1 | |
| 20260508045540 | 58 | 45 | 0.9 | 2.6 | 0.00 | 0.00 | 0.00 | 42 | 1014.0 |
| 20260508044519 | 58 | 45 | 1.7 | 2.6 | 0.00 | 0.00 | 0.00 | 41 | 1013.8 |
| 20260508043519 | 59 | 45 | 2.6 | 3.5 | 0.00 | 0.00 | 0.00 | 40 | 1014.1 |
| 20260508042519 | 59 | 45 | 1.7 | 2.6 | 0.00 | 0.00 | 0.00 | 40 | 1013.7 |
| 20260508041518 | 59 | 45 | 1.7 | 2.6 | 0.00 | 0.00 | 0.00 | 40 | 1013.7 |
| 20260508040518 | 59 | 45 | 1.7 | 2.6 | 0.00 | 0.00 | 0.00 | 39 | 1013.7 |
| 20260508035518 | 60 | 45 | 1.7 | 2.6 | 0.00 | 0.00 | 0.00 | 38 | 1013.7 |
| 20260508034519 | 60 | 45 | 2.6 | 3.5 | 0.00 | 0.00 | 0.00 | 38 | 1013.6 |
| 20260508033519 | 61 | 45 | 1.7 | 2.6 | 0.00 | 0.00 | 0.00 | 38 | 1013.9 |
| 20260508032520 | 62 | 45 | 1.7 | 2.6 | 0.00 | 0.00 | 0.00 | 37 | 1013.9 |
| 20260508031539 | 63 | 45 | 0.9 | 2.6 | 0.00 | 0.00 | 0.00 | 35 | 1013.5 |
| 20260508030519 | 65 | 45 | 1.7 | 2.6 | 0.00 | 0.00 | 0.00 | 34 | 1013.7 |
| 20260508025519 | 67 | 45 | 1.7 | 2.6 | 0.00 | 0.00 | 0.00 | 32 | 1013.7 |
| 20260508024538 | 69 | 45 | 1.7 | 2.6 | 0.00 | 0.00 | 0.00 | 32 | 1013.8 |
| 20260508023539 | 71 | 45 | 1.7 | 2.6 | 0.00 | 0.00 | 0.00 | 29 | 1013.8 |
| 20260508022600 | 73 | 0.0 | 0.0 | 0.00 | 0.00 | 0.00 | 28 | 1014.0 | |
| 20260508021519 | 74 | 0.0 | 1.7 | 0.00 | 0.00 | 0.00 | 25 | 1013.6 | |
| 20260508020518 | 75 | 0.0 | 0.9 | 0.00 | 0.00 | 0.00 | 25 | 1013.6 | |
| 20260508015518 | 76 | 0.0 | 0.0 | 0.00 | 0.00 | 0.00 | 24 | 1013.6 | |
| 20260508014518 | 77 | 0.0 | 0.9 | 0.00 | 0.00 | 0.00 | 23 | 1013.6 | |
| 20260508013518 | 77 | 0.0 | 2.6 | 0.00 | 0.00 | 0.00 | 21 | 1013.8 | |
| 20260508012539 | 78 | 68 | 0.9 | 3.5 | 0.00 | 0.00 | 0.00 | 21 | 1013.6 |
| 20260508011518 | 79 | 68 | 0.9 | 2.6 | 0.00 | 0.00 | 0.00 | 21 | 1014.0 |
| 20260508010518 | 79 | 68 | 0.9 | 2.6 | 0.00 | 0.00 | 0.00 | 21 | 1014.1 |
| 20260508005539 | 79 | 68 | 0.9 | 3.5 | 0.00 | 0.00 | 0.00 | 21 | 1013.9 |
| 20260508004519 | 77 | 68 | 0.9 | 2.6 | 0.00 | 0.00 | 0.00 | 21 | 1013.7 |
| 20260508003538 | 76 | 68 | 0.9 | 3.5 | 0.00 | 0.00 | 0.00 | 22 | 1013.8 |
| 20260508002539 | 75 | 293 | 0.9 | 2.6 | 0.00 | 0.00 | 0.00 | 23 | 1013.6 |
| 20260508001518 | 74 | 293 | 0.9 | 1.7 | 0.00 | 0.00 | 0.00 | 24 | 1013.6 |
| 20260508000519 | 74 | 0.0 | 0.0 | 0.00 | 0.00 | 0.00 | 25 | 1013.8 | |
| 20260507235529 | 74 | 0.0 | 0.9 | 0.00 | 0.00 | 0.00 | 26 | 1013.6 | |
| 20260507234519 | 74 | 293 | 0.9 | 1.7 | 0.00 | 0.00 | 0.00 | 24 | 1014.0 |
| 20260507233518 | 75 | 293 | 0.9 | 2.6 | 0.00 | 0.00 | 0.00 | 23 | 1014.0 |
| 20260507232518 | 76 | 45 | 0.9 | 3.5 | 0.00 | 0.00 | 0.00 | 22 | 1014.4 |
| 20260507231519 | 77 | 23 | 1.7 | 7.0 | 0.00 | 0.00 | 0.00 | 22 | 1014.6 |
| 20260507230517 | 75 | 270 | 1.7 | 3.5 | 0.00 | 0.00 | 0.00 | 24 | 1014.6 |
| 20260507225518 | 76 | 270 | 0.9 | 3.5 | 0.00 | 0.00 | 0.00 | 23 | 1015.2 |
| 20260507224518 | 77 | 270 | 0.9 | 3.5 | 0.00 | 0.00 | 0.00 | 22 | 1015.3 |
| 20260507223517 | 76 | 270 | 1.7 | 6.1 | 0.00 | 0.00 | 0.00 | 24 | 1015.2 |
| 20260507222518 | 75 | 270 | 1.7 | 5.2 | 0.00 | 0.00 | 0.00 | 23 | 1015.3 |
| 20260507221518 | 76 | 270 | 0.9 | 3.5 | 0.00 | 0.00 | 0.00 | 22 | 1015.7 |
| 20260507220518 | 76 | 248 | 1.7 | 6.1 | 0.00 | 0.00 | 0.00 | 24 | 1015.9 |
| 20260507215517 | 76 | 315 | 1.7 | 3.5 | 0.00 | 0.00 | 0.00 | 23 | 1015.9 |
| 20260507214518 | 76 | 270 | 0.9 | 5.2 | 0.00 | 0.00 | 0.00 | 24 | 1016.1 |
| 20260507213530 | 75 | 270 | 1.7 | 7.0 | 0.00 | 0.00 | 0.00 | 21 | 1016.3 |
| 20260507212518 | 76 | 270 | 0.9 | 2.6 | 0.00 | 0.00 | 0.00 | 23 | 1016.5 |
| 20260507211517 | 77 | 270 | 0.9 | 3.5 | 0.00 | 0.00 | 0.00 | 21 | 1016.9 |
| 20260507210538 | 77 | 270 | 0.9 | 3.5 | 0.00 | 0.00 | 0.00 | 21 | 1017.1 |
| 20260507205519 | 75 | 270 | 1.7 | 6.1 | 0.00 | 0.00 | 0.00 | 22 | 1016.9 |
| 20260507204541 | 75 | 248 | 1.7 | 4.3 | 0.00 | 0.00 | 0.00 | 21 | 1016.9 |
| 20260507203518 | 76 | 225 | 0.9 | 3.5 | 0.00 | 0.00 | 0.00 | 20 | 1017.0 |
| 20260507202517 | 73 | 225 | 0.9 | 3.5 | 0.00 | 0.00 | 0.00 | 21 | 1017.0 |
| 20260507201518 | 72 | 225 | 0.9 | 3.5 | 0.00 | 0.00 | 0.00 | 21 | 1016.8 |
| 20260507200519 | 74 | 225 | 0.9 | 1.7 | 0.00 | 0.00 | 0.00 | 22 | 1017.1 |
| 20260507195519 | 72 | 0.0 | 1.7 | 0.00 | 0.00 | 0.00 | 22 | 1016.9 | |
| 20260507194520 | 72 | 225 | 0.9 | 2.6 | 0.00 | 0.00 | 0.00 | 24 | 1017.0 |
| 20260507193518 | 72 | 225 | 0.9 | 1.7 | 0.00 | 0.00 | 0.00 | 23 | 1017.0 |
| 20260507192520 | 73 | 180 | 0.9 | 4.3 | 0.00 | 0.00 | 0.00 | 23 | 1017.4 |